Tracking 29089 objects as of 12-Jul-2024
HD Live streaming from Space Station
objects crossing your sky now

MORELOS 2

Track MORELOS 2 now!
MORELOS 2 is classified as:


NORAD ID: 16274
Int'l Code: 1985-109B
Perigee: 35,959.4 km
Apogee: 36,029.6 km
Inclination: 14.7 °
Period: 1,446.4 minutes
Semi major axis: 42365 km
RCS: 7.6304 m2 (large)
Launch date: November 27, 1985
Source: Mexico (MEX)
Launch site: AIR FORCE EASTERN TEST RANGE (AFETR)
Your satellite tracking list
Your tracking list is empty




NASA's NSSDC Master Catalog

Two Line Element Set (TLE):
1 16274U 85109B   24194.52794583 -.00000033  00000-0  00000-0 0  9993
2 16274  14.7451   1.9838 0008287 133.3318 243.3596  0.99559840 39340
Source of the keplerian elements: AFSPC